FLYING LAPTOP

Last updated on Mon Oct 20 2025 00:03:35 GMT+0000 (Coordinated Universal Time)

1 42831U 17042G 25292.35534731 .00005309 00000+0 43731-3 0 9990 2 42831 97.4209 93.5172 0009996 223.7373 136.3060 14.99436997450344
UTC large
Height (km)
Speed (km/s)
/
Latitude / Longitude
Inclination (degrees)
Orbital Period (minutes)
Azimuth
Elevation
Range (km)
Doppler Factor

Next 0 passes for location: London (51.5072 / 0.1276)

Sorry there are no passes over London.